User: anonymous   Login
Location: Goheenville
(40.9070°N, 79.3720°W)
Time: 09:45:28
(UTC-05:00)
Language:

Cosmos 1727 Rocket - Orbit

View from above orbital plane
View from above orbital plane
View from above satellite
View from above satellite

Ground track
Ground track

The orbit data is extracted from the following two-line orbital elements,

1 16511U 86008B   17022.85412391  .00000011  00000-0 -38100-5 0  9991
2 16511  82.9468 327.6951 0023632 331.8980  38.9257 13.75809295556294
Epoch (UTC): 22 January 2017 20:29:56
Eccentricity: 0.0023632
inclination: 82.9468°
perigee height: 961 km
apogee height: 996 km
right ascension of ascending node: 327.6951°
argument of perigee: 331.8980°
revolutions per day: 13.75809295
mean anomaly at epoch: 38.9257°
orbit number at epoch: 55629

The dashed part of the orbit path shows where the satellite is in the earth's shadow,  

DLR